SWR286A LSZH-LHBP

Flight info

Callsign SWR286A
Flight time N/A
Altitude 35000
Route DEGES2X DEGES Z2 TUNUM Z209 BIRGI DCT SETAL DCT GOTAR DCT SIRDU DCT OGVUN DCT VAJDI VAJDI2T
Aircraft A321/M-SDE3FGHIRWY/LB1

Departure

Time N/A
Airport Zürich Airport (LSZH)

Arrival

Time 2026-05-05 11:08
Airport Budapest Liszt Ferenc International Airport (LHBP)
Time Latitude Longitude Altitude Speed Heading
2026-05-05 10:38 47.16050 14.89039 34906 ft 451 kts 102°
2026-05-05 10:38 47.15526 14.93575 34908 ft 451 kts 102°
2026-05-05 10:39 47.14467 15.02652 34903 ft 451 kts 102°
2026-05-05 10:39 47.13400 15.11731 34901 ft 451 kts 102°
2026-05-05 10:40 47.12331 15.20809 34890 ft 451 kts 102°
2026-05-05 10:40 47.11261 15.29834 34883 ft 451 kts 102°
2026-05-05 10:41 47.10172 15.38905 34881 ft 451 kts 102°
2026-05-05 10:41 47.09074 15.47971 34883 ft 451 kts 102°
2026-05-05 10:42 47.07414 15.61581 34885 ft 451 kts 102°
2026-05-05 10:43 47.06299 15.70641 34888 ft 451 kts 102°
2026-05-05 10:43 47.05178 15.79700 34892 ft 451 kts 102°
2026-05-05 10:44 47.04058 15.88682 34897 ft 451 kts 102°
2026-05-05 10:44 47.02926 15.97728 34901 ft 451 kts 102°
2026-05-05 10:45 47.01793 16.06758 34902 ft 451 kts 102°
2026-05-05 10:45 47.00658 16.15799 34903 ft 451 kts 99°
2026-05-05 10:46 47.00691 16.24974 34910 ft 452 kts 80°
2026-05-05 10:46 47.02479 16.33780 34909 ft 452 kts 70°
2026-05-05 10:47 47.04548 16.42481 34913 ft 452 kts 70°
2026-05-05 10:47 47.05572 16.46845 34736 ft 453 kts 70°
2026-05-05 10:47 47.06593 16.51215 34498 ft 453 kts 70°
2026-05-05 10:47 47.07606 16.55545 34254 ft 453 kts 71°
2026-05-05 10:48 47.08629 16.59913 34017 ft 453 kts 71°
2026-05-05 10:48 47.09650 16.64279 33756 ft 452 kts 71°
2026-05-05 10:48 47.10672 16.68657 33481 ft 453 kts 71°
2026-05-05 10:48 47.11694 16.73052 33213 ft 454 kts 71°
2026-05-05 10:49 47.12712 16.77446 32943 ft 454 kts 71°
2026-05-05 10:49 47.13729 16.81837 32682 ft 455 kts 71°
2026-05-05 10:49 47.14737 16.86194 32413 ft 456 kts 71°
2026-05-05 10:49 47.15752 16.90609 31961 ft 457 kts 71°
2026-05-05 10:50 47.16761 16.95035 31452 ft 457 kts 71°
2026-05-05 10:50 47.17763 16.99466 30949 ft 458 kts 71°
2026-05-05 10:50 47.18766 17.03910 30455 ft 458 kts 71°
2026-05-05 10:50 47.19765 17.08342 29965 ft 456 kts 71°
2026-05-05 10:51 47.20757 17.12754 29417 ft 453 kts 71°
2026-05-05 10:51 47.21740 17.17135 28848 ft 450 kts 71°
2026-05-05 10:51 47.22719 17.21508 28310 ft 447 kts 72°
2026-05-05 10:51 47.23688 17.25843 27774 ft 443 kts 72°
2026-05-05 10:52 47.24642 17.30104 27259 ft 440 kts 72°
2026-05-05 10:52 47.25595 17.34370 26740 ft 437 kts 72°
2026-05-05 10:52 47.26538 17.38606 26228 ft 434 kts 72°
2026-05-05 10:52 47.27473 17.42819 25746 ft 431 kts 72°
2026-05-05 10:53 47.28403 17.47019 25238 ft 428 kts 73°
2026-05-05 10:53 47.29313 17.51140 24767 ft 425 kts 73°
2026-05-05 10:53 47.30228 17.55283 24282 ft 422 kts 73°
2026-05-05 10:53 47.31124 17.59361 23835 ft 419 kts 73°
2026-05-05 10:54 47.32023 17.63458 23341 ft 417 kts 73°
2026-05-05 10:54 47.32915 17.67523 22788 ft 414 kts 73°
2026-05-05 10:54 47.33797 17.71542 22261 ft 411 kts 73°
2026-05-05 10:54 47.34674 17.75550 21733 ft 409 kts 74°
2026-05-05 10:55 47.35543 17.79538 21214 ft 407 kts 74°
2026-05-05 10:55 47.36389 17.83438 20719 ft 404 kts 74°
2026-05-05 10:55 47.37242 17.87375 20224 ft 402 kts 75°
2026-05-05 10:55 47.38098 17.91324 19722 ft 400 kts 75°
2026-05-05 10:56 47.38934 17.95187 19241 ft 398 kts 75°
2026-05-05 10:56 47.39777 17.99090 18761 ft 397 kts 75°
2026-05-05 10:56 47.40609 18.02943 18300 ft 395 kts 75°
2026-05-05 10:56 47.41439 18.06800 17768 ft 393 kts 75°
2026-05-05 10:57 47.42262 18.10645 17233 ft 391 kts 75°
2026-05-05 10:57 47.43080 18.14461 16716 ft 390 kts 76°
2026-05-05 10:57 47.43897 18.18273 16203 ft 389 kts 75°
2026-05-05 10:57 47.44711 18.22071 15694 ft 387 kts 76°
2026-05-05 10:58 47.45521 18.25857 15202 ft 386 kts 76°
2026-05-05 10:58 47.46326 18.29632 14707 ft 384 kts 76°
2026-05-05 10:58 47.47125 18.33386 14232 ft 383 kts 76°
2026-05-05 10:58 47.47910 18.37100 13760 ft 381 kts 76°
2026-05-05 10:59 47.48699 18.40839 13235 ft 380 kts 76°
2026-05-05 10:59 47.49483 18.44557 12712 ft 378 kts 76°
2026-05-05 10:59 47.50266 18.48266 12199 ft 376 kts 76°
2026-05-05 10:59 47.51039 18.51943 11697 ft 374 kts 76°
2026-05-05 11:00 47.51812 18.55614 11199 ft 373 kts 76°
2026-05-05 11:00 47.52579 18.59267 10707 ft 371 kts 76°
2026-05-05 11:00 47.53342 18.62907 10219 ft 370 kts 76°
2026-05-05 11:00 47.54099 18.66536 9734 ft 368 kts 76°
2026-05-05 11:01 47.54851 18.70147 9213 ft 367 kts 76°
2026-05-05 11:01 47.55595 18.73715 8701 ft 365 kts 76°
2026-05-05 11:01 47.56341 18.77288 8198 ft 361 kts 76°
2026-05-05 11:01 47.57062 18.80749 7688 ft 342 kts 76°
2026-05-05 11:02 47.57744 18.84031 7197 ft 325 kts 76°
2026-05-05 11:02 47.58375 18.87077 6684 ft 314 kts 77°
2026-05-05 11:02 47.59005 18.90146 6073 ft 308 kts 77°
2026-05-05 11:02 47.59623 18.93162 5432 ft 302 kts 77°
2026-05-05 11:03 47.59984 18.96130 4876 ft 284 kts 100°
2026-05-05 11:03 47.59351 18.98652 4577 ft 255 kts 132°
2026-05-05 11:03 47.58198 19.00536 4251 ft 239 kts 139°
2026-05-05 11:03 47.57068 19.02267 3949 ft 228 kts 138°
2026-05-05 11:04 47.56029 19.03942 3670 ft 215 kts 137°
2026-05-05 11:04 47.55044 19.05547 3382 ft 205 kts 137°
2026-05-05 11:04 47.54122 19.07052 3149 ft 192 kts 137°
2026-05-05 11:04 47.53238 19.08489 2892 ft 185 kts 138°
2026-05-05 11:05 47.52382 19.09882 2624 ft 177 kts 137°
2026-05-05 11:05 47.51591 19.11173 2402 ft 161 kts 139°
2026-05-05 11:05 47.50871 19.12344 2193 ft 148 kts 139°
2026-05-05 11:05 47.50184 19.13456 2011 ft 145 kts 139°
2026-05-05 11:06 47.49521 19.14532 1820 ft 142 kts 138°
2026-05-05 11:06 47.48856 19.15611 1644 ft 142 kts 139°
2026-05-05 11:06 47.48186 19.16696 1450 ft 145 kts 139°
2026-05-05 11:06 47.47499 19.17809 1253 ft 147 kts 139°
2026-05-05 11:07 47.46822 19.18909 1076 ft 143 kts 138°
2026-05-05 11:07 47.46156 19.19993 841 ft 143 kts 137°
2026-05-05 11:07 47.45485 19.21100 627 ft 145 kts 138°
2026-05-05 11:07 47.44808 19.22195 486 ft 144 kts 139°
2026-05-05 11:08 47.44169 19.23178 463 ft 111 kts 131°
2026-05-05 11:08 47.43787 19.23818 463 ft 50 kts 129°
2026-05-05 11:08 47.43672 19.24247 467 ft 36 kts 103°
2026-05-05 11:08 47.43589 19.24540 467 ft 29 kts 123°
2026-05-05 11:09 47.43482 19.24718 468 ft 22 kts 133°
2026-05-05 11:09 47.43381 19.24879 468 ft 21 kts 129°
2026-05-05 11:09 47.43291 19.25033 466 ft 19 kts 132°
2026-05-05 11:09 47.43235 19.25204 468 ft 19 kts 81°
2026-05-05 11:10 47.43320 19.25354 467 ft 19 kts 42°
2026-05-05 11:10 47.43419 19.25487 469 ft 19 kts 42°
2026-05-05 11:10 47.43518 19.25621 469 ft 19 kts 42°
2026-05-05 11:10 47.43618 19.25756 466 ft 20 kts 43°
2026-05-05 11:11 47.43710 19.25880 467 ft 15 kts 42°
2026-05-05 11:11 47.43707 19.26012 467 ft 15 kts 131°
2026-05-05 11:11 47.43633 19.26134 469 ft 17 kts 133°
2026-05-05 11:11 47.43545 19.26234 469 ft 13 kts 134°
2026-05-05 11:12 47.43493 19.26299 469 ft 6 kts 188°
2026-05-05 11:12 47.43458 19.26256 469 ft 2 kts 221°
2026-05-05 11:12 47.43455 19.26253 469 ft 0 kts 221°